Location: Poughquag
(41.6090°N, 73.6820°W)
Time: 20:20:17
(UTC-04:00)

MOZHAYETS 4 - Pass Details

Date: 20 August 2024
Orbit: 650 x 668 km, 98.3° (Epoch: 15 September)

Event Time Altitude Azimuth Distance (km) Brightness Sun altitude
Rises 03:40:15 0° 140° (SE) 3,001 11.0 -24.5°
Reaches altitude 10° 03:42:39 10° 131° (SE) 2,093 10.3 -24.2°
Maximum altitude 03:46:41 32° 69° (ENE) 1,154 9.5 -23.6°
Drops below altitude 10° 03:50:44 10° 7° (N) 2,104 10.9 -23.1°
Sets 03:53:09 0° 357° (N) 3,020 11.7 -22.8°
